Location: Haulchin
(50.3172°N, 3.4360°E)
Time: 05:45:04
(UTC+00:00)

COBE Rocket - Visible Passes

Search period start: 12 July 2025 00:00
Search period end: 22 July 2025 00:00
Orbit: 675 x 774 km, 97.1° (Epoch: 11 July)

Date Brightness Start Highest point End Pass type
(mag) Time Alt. Az. Time Alt. Az. Time Alt. Az.
12 Jul 5.1 20:41:09 10° NE 20:44:53 23° E 20:48:32 10° SE visible
12 Jul 4.6 22:18:57 10° N 22:23:29 49° WNW 22:27:56 10° SW visible
13 Jul 3.8 21:30:08 10° NNE 21:34:48 63° E 21:38:55 13° S visible
13 Jul 6.1 23:09:20 10° NNW 23:12:41 20° WNW 23:16:01 10° WSW visible
14 Jul 5.0 20:42:00 10° NE 20:45:47 24° E 20:49:29 10° SE visible
14 Jul 4.7 22:19:52 10° N 22:24:22 47° WNW 22:28:46 10° SW visible
15 Jul 3.8 21:31:01 10° NNE 21:35:41 66° E 21:39:45 13° S visible
15 Jul 6.1 23:10:17 10° NNW 23:13:33 19° WNW 23:16:47 10° WSW visible
16 Jul 5.0 20:42:52 10° NE 20:46:40 25° E 20:50:27 10° SE visible
16 Jul 4.7 22:20:47 10° N 22:25:14 45° WNW 22:29:37 10° SW visible
17 Jul 3.7 21:31:55 10° NNE 21:36:35 68° E 21:40:36 13° S visible
17 Jul 6.2 23:11:14 10° NNW 23:14:25 18° WNW 23:17:33 10° WSW visible
18 Jul 4.9 20:43:43 10° NE 20:47:34 25° E 20:51:21 10° SSE visible
18 Jul 4.8 22:21:42 10° N 22:26:06 43° WNW 22:30:27 10° SW visible
19 Jul 3.7 21:32:48 10° NNE 21:37:27 71° E 21:41:26 14° S visible
19 Jul 6.2 23:12:12 10° NNW 23:15:16 18° WNW 23:18:19 10° W visible
20 Jul 4.9 20:44:33 10° NE 20:48:28 26° E 20:52:11 11° SSE visible
20 Jul 4.9 22:22:36 10° N 22:26:58 42° WNW 22:31:18 10° SW visible
21 Jul 3.7 21:33:41 10° NNE 21:38:20 74° E 21:42:16 14° S visible
21 Jul 6.3 23:13:09 10° NNW 23:16:07 17° WNW 23:19:05 10° W visible
